Time,TemperatureF,DewpointF,PressureIn,WindDirection,WindDirectionDegrees,WindSpeedMPH,WindSpeedGustMPH,Humidity,HourlyPrecipIn,Conditions,Clouds,dailyrainin,SoftwareType,DateUTC
2013-08-08 00:04:00,72.9,46.5,29.91,SW,214,0.0,0.0,39,0.00,,---,0.00,VWS V14.01,2013-08-08 07:04:00,
2013-08-08 00:09:00,72.7,46.3,29.91,SW,214,0.0,0.0,39,0.00,,---,0.00,VWS V14.01,2013-08-08 07:09:00,
2013-08-08 00:14:00,72.9,46.5,29.91,SW,214,0.0,0.0,39,0.00,,---,0.00,VWS V14.01,2013-08-08 07:14:00,
2013-08-08 00:19:00,72.9,46.5,29.91,SW,214,0.0,0.0,39,0.00,,---,0.00,VWS V14.01,2013-08-08 07:19:00,
2013-08-08 00:24:00,72.7,46.3,29.91,SW,214,0.0,0.0,39,0.00,,---,0.00,VWS V14.01,2013-08-08 07:24:00,
2013-08-08 00:29:00,72.3,46.0,29.91,SW,214,0.0,0.0,39,0.00,,---,0.00,VWS V14.01,2013-08-08 07:29:00,
2013-08-08 00:34:00,72.1,45.8,29.91,SW,214,0.0,0.0,39,0.00,,---,0.00,VWS V14.01,2013-08-08 07:34:00,
2013-08-08 00:39:00,72.0,45.7,29.91,SW,218,0.0,0.0,39,0.00,,---,0.00,VWS V14.01,2013-08-08 07:39:00,
2013-08-08 00:44:00,71.8,45.5,29.91,SW,218,0.0,0.0,39,0.00,,---,0.00,VWS V14.01,2013-08-08 07:44:00,
2013-08-08 00:49:00,72.0,45.7,29.91,SW,216,0.0,0.0,39,0.00,,---,0.00,VWS V14.01,2013-08-08 07:49:00,
2013-08-08 00:54:00,72.3,46.0,29.91,SW,216,0.0,0.0,39,0.00,,---,0.00,VWS V14.01,2013-08-08 07:54:00,
2013-08-08 00:59:00,72.1,45.8,29.91,SW,217,0.0,0.0,39,0.00,,---,0.00,VWS V14.01,2013-08-08 07:59:00,
2013-08-08 01:04:00,71.8,45.5,29.91,SW,217,0.0,0.0,39,0.00,,---,0.00,VWS V14.01,2013-08-08 08:04:00,
2013-08-08 01:09:00,71.4,45.2,29.91,SW,216,0.0,0.0,39,0.00,,---,0.00,VWS V14.01,2013-08-08 08:09:00,
2013-08-08 01:14:00,71.8,45.5,29.91,SW,218,0.0,0.0,39,0.00,,---,0.00,VWS V14.01,2013-08-08 08:14:00,
2013-08-08 01:20:00,71.8,45.5,29.91,SW,220,0.0,0.0,39,0.00,,---,0.00,VWS V14.01,2013-08-08 08:20:00,
2013-08-08 01:25:00,71.6,45.4,29.91,SW,227,0.0,0.0,39,0.00,,---,0.00,VWS V14.01,2013-08-08 08:25:00,
2013-08-08 01:30:00,71.1,44.9,29.91,SW,232,0.0,0.0,39,0.00,,---,0.00,VWS V14.01,2013-08-08 08:30:00,
2013-08-08 01:35:00,70.9,44.7,29.91,SW,232,0.0,0.0,39,0.00,,---,0.00,VWS V14.01,2013-08-08 08:35:00,
2013-08-08 01:40:00,70.5,44.4,29.91,SW,232,0.0,0.0,39,0.00,,---,0.00,VWS V14.01,2013-08-08 08:40:00,
2013-08-08 01:45:00,70.2,44.1,29.91,SW,232,0.0,0.0,39,0.00,,---,0.00,VWS V14.01,2013-08-08 08:45:00,
2013-08-08 01:50:00,69.8,43.8,29.91,SW,232,0.0,0.0,39,0.00,,---,0.00,VWS V14.01,2013-08-08 08:50:00,
2013-08-08 01:55:00,69.6,44.2,29.91,SW,232,0.0,0.0,40,0.00,,---,0.00,VWS V14.01,2013-08-08 08:55:00,
2013-08-08 02:00:00,69.4,44.1,29.91,SW,232,0.0,0.0,40,0.00,,---,0.00,VWS V14.01,2013-08-08 09:00:00,
2013-08-08 02:05:00,69.3,43.9,29.91,SW,232,0.0,0.0,40,0.00,,---,0.00,VWS V14.01,2013-08-08 09:05:00,
2013-08-08 02:10:00,69.3,43.9,29.91,SW,232,0.0,0.0,40,0.00,,---,0.00,VWS V14.01,2013-08-08 09:10:00,
2013-08-08 02:15:00,69.1,43.8,29.91,SW,232,0.0,0.0,40,0.00,,---,0.00,VWS V14.01,2013-08-08 09:15:00,
2013-08-08 02:20:00,68.9,43.6,29.91,SW,232,0.0,0.0,40,0.00,,---,0.00,VWS V14.01,2013-08-08 09:20:00,
2013-08-08 02:25:00,68.9,43.6,29.91,SW,217,0.0,0.0,40,0.00,,---,0.00,VWS V14.01,2013-08-08 09:25:00,
2013-08-08 02:31:00,69.6,44.2,29.91,SW,214,0.0,0.0,40,0.00,,---,0.00,VWS V14.01,2013-08-08 09:31:00,
2013-08-08 02:36:00,69.8,43.8,29.91,SW,214,0.0,0.0,39,0.00,,---,0.00,VWS V14.01,2013-08-08 09:36:00,
2013-08-08 02:41:00,69.6,44.2,29.91,SW,214,0.0,0.0,40,0.00,,---,0.00,VWS V14.01,2013-08-08 09:41:00,
2013-08-08 02:46:00,68.9,43.6,29.91,SW,214,0.0,0.0,40,0.00,,---,0.00,VWS V14.01,2013-08-08 09:46:00,
2013-08-08 02:51:00,68.2,43.0,29.91,SW,214,0.0,0.0,40,0.00,,---,0.00,VWS V14.01,2013-08-08 09:51:00,
2013-08-08 02:56:00,67.5,42.3,29.91,SW,215,0.0,0.0,40,0.00,,---,0.00,VWS V14.01,2013-08-08 09:56:00,
2013-08-08 03:01:00,66.9,41.8,29.91,SW,214,0.0,0.0,40,0.00,,---,0.00,VWS V14.01,2013-08-08 10:01:00,
2013-08-08 03:06:00,66.7,41.7,29.91,SW,214,0.0,0.0,40,0.00,,---,0.00,VWS V14.01,2013-08-08 10:06:00,
2013-08-08 03:11:00,66.6,41.5,29.91,SW,214,0.0,0.0,40,0.00,,---,0.00,VWS V14.01,2013-08-08 10:11:00,
2013-08-08 03:16:00,66.6,41.5,29.91,SW,216,0.0,0.0,40,0.00,,---,0.00,VWS V14.01,2013-08-08 10:16:00,
2013-08-08 03:21:00,66.9,41.8,29.91,SW,216,0.0,0.0,40,0.00,,---,0.00,VWS V14.01,2013-08-08 10:21:00,
2013-08-08 03:26:00,66.7,41.7,29.91,SW,216,0.0,0.0,40,0.00,,---,0.00,VWS V14.01,2013-08-08 10:26:00,
2013-08-08 03:31:00,66.6,41.5,29.91,SW,216,0.0,0.0,40,0.00,,---,0.00,VWS V14.01,2013-08-08 10:31:00,
2013-08-08 03:36:00,66.6,41.5,29.91,SW,216,0.0,0.0,40,0.00,,---,0.00,VWS V14.01,2013-08-08 10:36:00,
2013-08-08 03:41:00,66.2,41.2,29.91,SW,216,0.0,0.0,40,0.00,,---,0.00,VWS V14.01,2013-08-08 10:41:00,
2013-08-08 03:46:00,65.7,40.7,29.91,SW,216,0.0,0.0,40,0.00,,---,0.00,VWS V14.01,2013-08-08 10:46:00,
2013-08-08 03:51:00,65.3,40.4,29.91,SW,216,0.0,0.0,40,0.00,,---,0.00,VWS V14.01,2013-08-08 10:51:00,
2013-08-08 03:56:00,65.1,42.1,29.91,SW,216,0.0,0.0,43,0.00,,---,0.00,VWS V14.01,2013-08-08 10:56:00,
2013-08-08 04:01:00,65.1,42.1,29.91,SW,216,0.0,0.0,43,0.00,,---,0.00,VWS V14.01,2013-08-08 11:01:00,
2013-08-08 04:06:00,65.1,42.1,29.91,SW,216,0.0,0.0,43,0.00,,---,0.00,VWS V14.01,2013-08-08 11:06:00,
2013-08-08 04:11:00,65.1,42.1,29.91,SW,216,0.0,0.0,43,0.00,,---,0.00,VWS V14.01,2013-08-08 11:11:00,
2013-08-08 04:16:00,65.3,42.2,29.91,SW,216,0.0,0.0,43,0.00,,---,0.00,VWS V14.01,2013-08-08 11:16:00,
2013-08-08 04:21:00,65.1,42.1,29.91,SW,216,0.0,0.0,43,0.00,,---,0.00,VWS V14.01,2013-08-08 11:21:00,
2013-08-08 04:27:00,64.8,41.8,29.91,SW,216,0.0,0.0,43,0.00,,---,0.00,VWS V14.01,2013-08-08 11:27:00,
2013-08-08 04:32:00,64.6,41.6,29.91,SW,217,0.0,0.0,43,0.00,,---,0.00,VWS V14.01,2013-08-08 11:32:00,
2013-08-08 04:37:00,64.9,41.9,29.91,SSW,212,0.0,0.0,43,0.00,,---,0.00,VWS V14.01,2013-08-08 11:37:00,
2013-08-08 04:42:00,65.1,42.1,29.91,SSW,209,0.0,0.0,43,0.00,,---,0.00,VWS V14.01,2013-08-08 11:42:00,
2013-08-08 04:47:00,65.5,42.4,29.91,SSW,210,0.0,0.0,43,0.00,,---,0.00,VWS V14.01,2013-08-08 11:47:00,
2013-08-08 04:52:00,65.5,42.4,29.91,SSW,210,0.0,0.0,43,0.00,,---,0.00,VWS V14.01,2013-08-08 11:52:00,
2013-08-08 04:57:00,65.3,42.2,29.91,SSW,210,0.0,0.0,43,0.00,,---,0.00,VWS V14.01,2013-08-08 11:57:00,
2013-08-08 05:02:00,65.1,42.1,29.91,SSW,210,0.0,0.0,43,0.00,,---,0.00,VWS V14.01,2013-08-08 12:02:00,
2013-08-08 05:23:00,64.8,41.8,29.91,SSW,209,0.0,0.0,43,0.00,,---,0.00,VWS V14.01,2013-08-08 12:23:00,
2013-08-08 05:28:00,64.6,41.6,29.91,SSW,209,0.0,0.0,43,0.00,,---,0.00,VWS V14.01,2013-08-08 12:28:00,
2013-08-08 05:33:00,64.4,41.4,29.91,SSW,209,0.0,0.0,43,0.00,,---,0.00,VWS V14.01,2013-08-08 12:33:00,
2013-08-08 05:38:00,64.4,41.4,29.91,SSW,209,0.0,0.0,43,0.00,,---,0.00,VWS V14.01,2013-08-08 12:38:00,
2013-08-08 05:43:00,64.6,41.6,29.94,SSW,209,0.0,0.0,43,0.00,,---,0.00,VWS V14.01,2013-08-08 12:43:00,
2013-08-08 05:48:00,64.8,41.8,29.94,SSW,209,0.0,0.0,43,0.00,,---,0.00,VWS V14.01,2013-08-08 12:48:00,
2013-08-08 05:53:00,64.4,41.4,29.94,SSW,209,0.0,0.0,43,0.00,,---,0.00,VWS V14.01,2013-08-08 12:53:00,
2013-08-08 05:58:00,64.4,41.4,29.94,SSW,209,0.0,0.0,43,0.00,,---,0.00,VWS V14.01,2013-08-08 12:58:00,
2013-08-08 06:03:00,64.4,41.4,29.94,SSW,209,0.0,0.0,43,0.00,,---,0.00,VWS V14.01,2013-08-08 13:03:00,
2013-08-08 06:08:00,64.4,41.4,29.94,SSW,209,0.0,0.0,43,0.00,,---,0.00,VWS V14.01,2013-08-08 13:08:00,
2013-08-08 06:13:00,64.8,41.8,29.94,SW,226,0.0,0.0,43,0.00,,---,0.00,VWS V14.01,2013-08-08 13:13:00,
2013-08-08 06:18:00,64.9,41.9,29.94,SW,226,0.0,0.0,43,0.00,,---,0.00,VWS V14.01,2013-08-08 13:18:00,
2013-08-08 06:23:00,65.3,42.2,29.94,SW,225,0.0,0.0,43,0.00,,---,0.00,VWS V14.01,2013-08-08 13:23:00,
2013-08-08 06:28:00,65.5,42.4,29.94,SSE,167,0.0,0.0,43,0.00,,---,0.00,VWS V14.01,2013-08-08 13:28:00,
2013-08-08 06:33:00,66.0,42.9,29.94,SSE,167,0.0,0.0,43,0.00,,---,0.00,VWS V14.01,2013-08-08 13:33:00,
2013-08-08 06:38:00,66.7,42.9,29.94,SSE,167,0.0,0.0,42,0.00,,---,0.00,VWS V14.01,2013-08-08 13:38:00,
2013-08-08 06:43:00,67.8,43.9,29.94,SSE,168,0.0,0.0,42,0.00,,---,0.00,VWS V14.01,2013-08-08 13:43:00,
2013-08-08 06:48:00,68.7,44.7,29.94,NW,326,0.0,0.0,42,0.00,,---,0.00,VWS V14.01,2013-08-08 13:48:00,
2013-08-08 06:53:00,69.4,45.4,29.94,NNW,329,0.0,0.0,42,0.00,,---,0.00,VWS V14.01,2013-08-08 13:53:00,
2013-08-08 06:58:00,69.6,45.5,29.94,WNW,294,4.0,4.9,42,0.00,,---,0.00,VWS V14.01,2013-08-08 13:58:00,
2013-08-08 07:03:00,69.8,45.7,29.94,WNW,294,3.1,3.6,42,0.00,,---,0.00,VWS V14.01,2013-08-08 14:03:00,
2013-08-08 07:09:00,70.2,46.0,29.94,WNW,283,0.0,0.0,42,0.00,,---,0.00,VWS V14.01,2013-08-08 14:09:00,
2013-08-08 07:14:00,70.5,46.3,29.94,WNW,300,3.6,6.3,42,0.00,,---,0.00,VWS V14.01,2013-08-08 14:14:00,
2013-08-08 07:19:00,70.9,46.7,29.94,WNW,288,5.8,5.8,42,0.00,,---,0.00,VWS V14.01,2013-08-08 14:19:00,
2013-08-08 07:24:00,71.2,47.0,29.94,West,276,5.4,5.4,42,0.00,,---,0.00,VWS V14.01,2013-08-08 14:24:00,
2013-08-08 07:29:00,71.4,47.2,29.97,West,274,0.0,0.0,42,0.00,,---,0.00,VWS V14.01,2013-08-08 14:29:00,
2013-08-08 07:34:00,71.8,45.5,29.97,WNW,286,0.0,0.0,39,0.00,,---,0.00,VWS V14.01,2013-08-08 14:34:00,
2013-08-08 07:39:00,72.3,46.0,29.97,WNW,296,0.0,0.0,39,0.00,,---,0.00,VWS V14.01,2013-08-08 14:39:00,
2013-08-08 07:44:00,72.7,46.3,29.97,WNW,292,0.0,0.0,39,0.00,,---,0.00,VWS V14.01,2013-08-08 14:44:00,
2013-08-08 07:49:00,73.0,46.6,29.97,NW,305,0.0,0.0,39,0.00,,---,0.00,VWS V14.01,2013-08-08 14:49:00,
2013-08-08 07:54:00,73.4,46.3,29.97,NW,322,0.0,0.0,38,0.00,,---,0.00,VWS V14.01,2013-08-08 14:54:00,
2013-08-08 07:59:00,73.8,46.6,29.97,NNW,334,0.0,0.0,38,0.00,,---,0.00,VWS V14.01,2013-08-08 14:59:00,
2013-08-08 08:04:00,74.1,46.9,29.97,NNW,334,0.0,0.0,38,0.00,,---,0.00,VWS V14.01,2013-08-08 15:04:00,
2013-08-08 08:09:00,74.5,47.2,29.97,NNW,333,0.0,0.0,38,0.00,,---,0.00,VWS V14.01,2013-08-08 15:09:00,
2013-08-08 08:14:00,75.0,47.7,29.97,NNW,334,0.0,0.0,38,0.00,,---,0.00,VWS V14.01,2013-08-08 15:14:00,
2013-08-08 08:19:00,75.4,48.0,29.97,NNW,335,0.0,0.0,38,0.00,,---,0.00,VWS V14.01,2013-08-08 15:19:00,
2013-08-08 08:25:00,75.7,48.4,29.97,North,353,0.0,0.0,38,0.00,,---,0.00,VWS V14.01,2013-08-08 15:25:00,
2013-08-08 08:30:00,76.1,48.7,29.97,North,6,0.0,0.0,38,0.00,,---,0.00,VWS V14.01,2013-08-08 15:30:00,
2013-08-08 08:35:00,76.5,49.0,29.97,North,349,0.0,0.0,38,0.00,,---,0.00,VWS V14.01,2013-08-08 15:35:00,
2013-08-08 08:40:00,76.8,49.3,29.97,NNW,345,0.0,0.0,38,0.00,,---,0.00,VWS V14.01,2013-08-08 15:40:00,
2013-08-08 08:45:00,77.2,49.6,29.97,NNW,335,0.0,0.0,38,0.00,,---,0.00,VWS V14.01,2013-08-08 15:45:00,
2013-08-08 08:50:00,77.4,49.8,29.97,NNW,330,0.0,0.0,38,0.00,,---,0.00,VWS V14.01,2013-08-08 15:50:00,
2013-08-08 08:55:00,77.5,50.0,29.97,NW,325,0.0,0.0,38,0.00,,---,0.00,VWS V14.01,2013-08-08 15:55:00,
2013-08-08 09:00:00,77.9,50.3,29.97,NNW,332,0.0,0.0,38,0.00,,---,0.00,VWS V14.01,2013-08-08 16:00:00,
2013-08-08 09:05:00,78.8,50.4,29.97,NNW,334,0.0,0.0,37,0.00,,---,0.00,VWS V14.01,2013-08-08 16:05:00,
2013-08-08 09:10:00,79.3,50.8,29.97,North,0,0.0,0.0,37,0.00,,---,0.00,VWS V14.01,2013-08-08 16:10:00,
2013-08-08 09:15:00,79.9,51.3,29.97,NE,35,0.0,0.0,37,0.00,,---,0.00,VWS V14.01,2013-08-08 16:15:00,
2013-08-08 09:20:00,80.4,51.8,29.97,NW,310,0.0,0.0,37,0.00,,---,0.00,VWS V14.01,2013-08-08 16:20:00,
2013-08-08 09:25:00,80.8,52.1,29.94,NNE,17,4.9,4.9,37,0.00,,---,0.00,VWS V14.01,2013-08-08 16:25:00,
2013-08-08 09:30:00,80.6,52.0,29.94,NE,50,0.0,0.0,37,0.00,,---,0.00,VWS V14.01,2013-08-08 16:30:00,
2013-08-08 09:35:00,81.0,52.3,29.94,NW,320,0.0,2.2,37,0.00,,---,0.00,VWS V14.01,2013-08-08 16:35:00,
2013-08-08 09:40:00,81.1,52.4,29.97,North,0,0.0,0.0,37,0.00,,---,0.00,VWS V14.01,2013-08-08 16:40:00,
2013-08-08 09:45:00,81.7,52.9,29.97,NNE,23,3.1,3.1,37,0.00,,---,0.00,VWS V14.01,2013-08-08 16:45:00,
2013-08-08 09:50:00,81.9,53.1,29.97,North,357,0.0,0.0,37,0.00,,---,0.00,VWS V14.01,2013-08-08 16:50:00,
2013-08-08 09:55:00,82.0,53.2,29.94,NNE,18,0.0,0.0,37,0.00,,---,0.00,VWS V14.01,2013-08-08 16:55:00,
2013-08-08 10:00:00,82.2,53.4,29.94,NNW,345,0.0,0.0,37,0.00,,---,0.00,VWS V14.01,2013-08-08 17:00:00,
2013-08-08 10:05:00,82.4,53.5,29.94,NNW,346,0.0,0.0,37,0.00,,---,0.00,VWS V14.01,2013-08-08 17:05:00,
2013-08-08 10:10:00,83.3,54.3,29.94,North,353,0.0,0.0,37,0.00,,---,0.00,VWS V14.01,2013-08-08 17:10:00,
2013-08-08 10:15:00,83.7,54.7,29.94,North,8,3.6,4.9,37,0.00,,---,0.00,VWS V14.01,2013-08-08 17:15:00,
2013-08-08 10:20:00,84.2,55.1,29.94,NNW,341,0.0,0.0,37,0.00,,---,0.00,VWS V14.01,2013-08-08 17:20:00,
2013-08-08 10:25:00,84.2,55.1,29.94,NNW,344,0.0,0.0,37,0.00,,---,0.00,VWS V14.01,2013-08-08 17:25:00,
2013-08-08 10:30:00,84.4,55.3,29.94,NNW,340,3.1,5.4,37,0.00,,---,0.00,VWS V14.01,2013-08-08 17:30:00,
2013-08-08 10:35:00,84.9,55.8,29.94,NW,320,0.0,0.0,37,0.00,,---,0.00,VWS V14.01,2013-08-08 17:35:00,
2013-08-08 10:41:00,85.5,56.2,29.94,WNW,286,4.0,5.4,37,0.00,,---,0.00,VWS V14.01,2013-08-08 17:41:00,
2013-08-08 10:46:00,86.0,56.7,29.94,NNW,342,0.0,0.0,37,0.00,,---,0.00,VWS V14.01,2013-08-08 17:46:00,
2013-08-08 10:51:00,86.7,57.4,29.94,NW,321,4.0,6.3,37,0.00,,---,0.00,VWS V14.01,2013-08-08 17:51:00,
2013-08-08 10:56:00,87.1,57.7,29.94,North,0,0.0,0.0,37,0.00,,---,0.00,VWS V14.01,2013-08-08 17:56:00,
2013-08-08 11:01:00,87.1,57.7,29.94,NNW,331,5.4,5.4,37,0.00,,---,0.00,VWS V14.01,2013-08-08 18:01:00,
2013-08-08 11:06:00,87.6,58.2,29.94,ENE,60,4.9,5.4,37,0.00,,---,0.00,VWS V14.01,2013-08-08 18:06:00,
2013-08-08 11:11:00,88.2,58.6,29.94,ENE,73,0.0,3.1,37,0.00,,---,0.00,VWS V14.01,2013-08-08 18:11:00,
2013-08-08 11:16:00,88.5,59.0,29.94,North,0,5.8,5.8,37,0.00,,---,0.00,VWS V14.01,2013-08-08 18:16:00,
2013-08-08 11:21:00,89.1,59.4,29.94,ENE,66,3.6,3.6,37,0.00,,---,0.00,VWS V14.01,2013-08-08 18:21:00,
2013-08-08 11:26:00,90.1,60.4,29.94,East,79,6.3,6.3,37,0.00,,---,0.00,VWS V14.01,2013-08-08 18:26:00,
2013-08-08 11:31:00,90.7,60.9,29.94,NNE,18,0.0,0.0,37,0.00,,---,0.00,VWS V14.01,2013-08-08 18:31:00,
2013-08-08 11:36:00,91.0,61.2,29.94,East,89,6.3,7.2,37,0.00,,---,0.00,VWS V14.01,2013-08-08 18:36:00,
2013-08-08 11:41:00,91.8,61.8,29.94,North,0,3.1,4.9,37,0.00,,---,0.00,VWS V14.01,2013-08-08 18:41:00,
2013-08-08 11:46:00,91.9,62.0,29.91,East,95,8.1,8.3,37,0.00,,---,0.00,VWS V14.01,2013-08-08 18:46:00,
2013-08-08 11:51:00,92.3,62.3,29.91,North,0,8.3,8.3,37,0.00,,---,0.00,VWS V14.01,2013-08-08 18:51:00,
2013-08-08 11:56:00,91.9,62.0,29.91,North,357,0.0,4.0,37,0.00,,---,0.00,VWS V14.01,2013-08-08 18:56:00,
2013-08-08 12:01:00,92.7,62.6,29.91,North,0,0.0,0.0,37,0.00,,---,0.00,VWS V14.01,2013-08-08 19:01:00,
2013-08-08 12:06:00,93.0,62.9,29.91,North,357,0.0,0.0,37,0.00,,---,0.00,VWS V14.01,2013-08-08 19:06:00,
2013-08-08 12:11:00,93.2,63.1,29.91,ENE,68,0.0,0.0,37,0.00,,---,0.00,VWS V14.01,2013-08-08 19:11:00,
2013-08-08 12:16:00,93.7,63.6,29.91,SE,131,0.0,0.0,37,0.00,,---,0.00,VWS V14.01,2013-08-08 19:16:00,
2013-08-08 12:21:00,94.5,64.2,29.91,SE,125,0.0,0.0,37,0.00,,---,0.00,VWS V14.01,2013-08-08 19:21:00,
2013-08-08 12:26:00,94.6,64.3,29.91,North,0,0.0,0.0,37,0.00,,---,0.00,VWS V14.01,2013-08-08 19:26:00,
2013-08-08 12:31:00,94.6,64.3,29.91,North,3,0.0,0.0,37,0.00,,---,0.00,VWS V14.01,2013-08-08 19:31:00,
2013-08-08 12:36:00,94.5,64.2,29.91,ESE,102,0.0,0.0,37,0.00,,---,0.00,VWS V14.01,2013-08-08 19:36:00,
2013-08-08 12:41:00,94.3,64.0,29.91,North,3,0.0,0.0,37,0.00,,---,0.00,VWS V14.01,2013-08-08 19:41:00,
2013-08-08 12:46:00,94.1,63.9,29.91,ESE,123,0.0,0.0,37,0.00,,---,0.00,VWS V14.01,2013-08-08 19:46:00,
2013-08-08 12:52:00,94.1,63.9,29.91,North,4,0.0,0.0,37,0.00,,---,0.00,VWS V14.01,2013-08-08 19:52:00,
2013-08-08 12:57:00,94.3,64.0,29.91,North,357,0.0,0.0,37,0.00,,---,0.00,VWS V14.01,2013-08-08 19:57:00,
2013-08-08 13:02:00,94.6,64.3,29.91,North,3,0.0,0.0,37,0.00,,---,0.00,VWS V14.01,2013-08-08 20:02:00,
2013-08-08 13:07:00,95.0,64.7,29.91,North,357,0.0,0.0,37,0.00,,---,0.00,VWS V14.01,2013-08-08 20:07:00,
2013-08-08 13:12:00,95.0,64.7,29.88,North,357,0.0,0.0,37,0.00,,---,0.00,VWS V14.01,2013-08-08 20:12:00,
2013-08-08 13:17:00,95.5,65.1,29.88,North,357,0.0,0.0,37,0.00,,---,0.00,VWS V14.01,2013-08-08 20:17:00,
2013-08-08 13:22:00,96.3,65.8,29.88,North,357,0.0,0.0,37,0.00,,---,0.00,VWS V14.01,2013-08-08 20:22:00,
2013-08-08 13:27:00,96.3,65.8,29.88,North,0,0.0,0.0,37,0.00,,---,0.00,VWS V14.01,2013-08-08 20:27:00,
2013-08-08 13:32:00,96.4,65.9,29.88,North,357,0.0,0.0,37,0.00,,---,0.00,VWS V14.01,2013-08-08 20:32:00,
2013-08-08 13:37:00,95.9,65.5,29.88,North,357,0.0,0.0,37,0.00,,---,0.00,VWS V14.01,2013-08-08 20:37:00,
2013-08-08 13:43:00,95.9,65.5,29.88,North,0,0.0,0.0,37,0.00,,---,0.00,VWS V14.01,2013-08-08 20:43:00,
2013-08-08 13:48:00,96.3,65.8,29.88,North,2,0.0,0.0,37,0.00,,---,0.00,VWS V14.01,2013-08-08 20:48:00,
2013-08-08 13:53:00,95.5,65.1,29.88,North,0,0.0,0.0,37,0.00,,---,0.00,VWS V14.01,2013-08-08 20:53:00,
2013-08-08 13:58:00,95.4,65.0,29.88,North,5,0.0,0.0,37,0.00,,---,0.00,VWS V14.01,2013-08-08 20:58:00,
2013-08-08 14:03:00,95.5,65.1,29.88,North,0,0.0,0.0,37,0.00,,---,0.00,VWS V14.01,2013-08-08 21:03:00,
2013-08-08 14:09:00,96.1,65.6,29.88,North,3,0.0,0.0,37,0.00,,---,0.00,VWS V14.01,2013-08-08 21:09:00,
2013-08-08 14:14:00,95.7,65.3,29.88,North,0,0.0,0.0,37,0.00,,---,0.00,VWS V14.01,2013-08-08 21:14:00,
2013-08-08 14:19:00,95.9,65.5,29.88,North,357,0.0,0.0,37,0.00,,---,0.00,VWS V14.01,2013-08-08 21:19:00,
2013-08-08 14:24:00,96.6,66.1,29.88,North,2,0.0,0.0,37,0.00,,---,0.00,VWS V14.01,2013-08-08 21:24:00,
2013-08-08 14:30:00,96.6,66.1,29.88,North,2,0.0,0.0,37,0.00,,---,0.00,VWS V14.01,2013-08-08 21:30:00,
2013-08-08 14:35:00,96.8,66.2,29.88,North,0,0.0,0.0,37,0.00,,---,0.00,VWS V14.01,2013-08-08 21:35:00,
2013-08-08 14:41:00,96.8,66.2,29.88,North,0,0.0,0.0,37,0.00,,---,0.00,VWS V14.01,2013-08-08 21:41:00,
2013-08-08 14:46:00,96.8,66.2,29.88,North,2,0.0,0.0,37,0.00,,---,0.00,VWS V14.01,2013-08-08 21:46:00,
2013-08-08 14:51:00,96.8,66.2,29.88,North,2,0.0,0.0,37,0.00,,---,0.00,VWS V14.01,2013-08-08 21:51:00,
2013-08-08 14:56:00,96.6,66.1,29.85,North,357,0.0,0.0,37,0.00,,---,0.00,VWS V14.01,2013-08-08 21:56:00,
2013-08-08 15:02:00,96.6,66.1,29.85,North,0,0.0,0.0,37,0.00,,---,0.00,VWS V14.01,2013-08-08 22:02:00,
2013-08-08 15:07:00,96.1,65.6,29.85,North,357,0.0,0.0,37,0.00,,---,0.00,VWS V14.01,2013-08-08 22:07:00,
2013-08-08 15:12:00,96.3,65.8,29.85,North,3,0.0,0.0,37,0.00,,---,0.00,VWS V14.01,2013-08-08 22:12:00,
2013-08-08 15:18:00,96.4,65.9,29.85,North,2,0.0,0.0,37,0.00,,---,0.00,VWS V14.01,2013-08-08 22:18:00,
2013-08-08 15:23:00,95.9,65.5,29.85,North,0,0.0,0.0,37,0.00,,---,0.00,VWS V14.01,2013-08-08 22:23:00,
2013-08-08 15:28:00,96.1,65.6,29.85,North,357,0.0,0.0,37,0.00,,---,0.00,VWS V14.01,2013-08-08 22:28:00,
2013-08-08 15:33:00,95.9,65.5,29.85,North,357,0.0,0.0,37,0.00,,---,0.00,VWS V14.01,2013-08-08 22:33:00,
2013-08-08 15:39:00,96.1,65.6,29.85,North,357,0.0,0.0,37,0.00,,---,0.00,VWS V14.01,2013-08-08 22:39:00,
2013-08-08 15:44:00,96.1,65.6,29.85,North,357,0.0,0.0,37,0.00,,---,0.00,VWS V14.01,2013-08-08 22:44:00,
2013-08-08 15:49:00,96.3,65.8,29.85,North,357,0.0,0.0,37,0.00,,---,0.00,VWS V14.01,2013-08-08 22:49:00,
2013-08-08 15:54:00,95.7,65.3,29.85,North,357,0.0,0.0,37,0.00,,---,0.00,VWS V14.01,2013-08-08 22:54:00,
2013-08-08 16:00:00,96.3,65.8,29.85,North,357,0.0,0.0,37,0.00,,---,0.00,VWS V14.01,2013-08-08 23:00:00,
2013-08-08 16:05:00,96.1,65.6,29.85,North,0,0.0,0.0,37,0.00,,---,0.00,VWS V14.01,2013-08-08 23:05:00,
2013-08-08 16:11:00,95.7,65.3,29.85,North,0,0.0,0.0,37,0.00,,---,0.00,VWS V14.01,2013-08-08 23:11:00,
2013-08-08 16:16:00,95.5,65.1,29.85,North,2,0.0,0.0,37,0.00,,---,0.00,VWS V14.01,2013-08-08 23:16:00,
2013-08-08 16:21:00,95.5,65.1,29.85,North,357,0.0,0.0,37,0.00,,---,0.00,VWS V14.01,2013-08-08 23:21:00,
2013-08-08 16:27:00,95.7,65.3,29.85,North,0,0.0,0.0,37,0.00,,---,0.00,VWS V14.01,2013-08-08 23:27:00,
2013-08-08 16:32:00,95.9,65.5,29.85,North,0,0.0,0.0,37,0.00,,---,0.00,VWS V14.01,2013-08-08 23:32:00,
2013-08-08 16:37:00,95.7,65.3,29.85,North,0,0.0,0.0,37,0.00,,---,0.00,VWS V14.01,2013-08-08 23:37:00,
2013-08-08 16:42:00,95.4,65.0,29.85,North,2,0.0,0.0,37,0.00,,---,0.00,VWS V14.01,2013-08-08 23:42:00,
2013-08-08 16:47:00,95.0,64.7,29.85,North,3,0.0,0.0,37,0.00,,---,0.00,VWS V14.01,2013-08-08 23:47:00,
2013-08-08 16:52:00,94.6,64.3,29.85,North,2,0.0,0.0,37,0.00,,---,0.00,VWS V14.01,2013-08-08 23:52:00,
2013-08-08 16:57:00,94.3,64.0,29.85,North,0,0.0,0.0,37,0.00,,---,0.00,VWS V14.01,2013-08-08 23:57:00,
2013-08-08 17:02:00,94.1,63.9,29.85,North,2,0.0,0.0,37,0.00,,---,0.00,VWS V14.01,2013-08-09 00:02:00,
2013-08-08 17:07:00,93.9,63.7,29.85,North,2,0.0,0.0,37,0.00,,---,0.00,VWS V14.01,2013-08-09 00:07:00,
2013-08-08 17:13:00,93.9,63.7,29.85,North,2,0.0,0.0,37,0.00,,---,0.00,VWS V14.01,2013-08-09 00:13:00,
2013-08-08 17:18:00,93.7,63.6,29.85,North,2,0.0,0.0,37,0.00,,---,0.00,VWS V14.01,2013-08-09 00:18:00,
2013-08-08 17:23:00,93.7,63.6,29.85,North,3,0.0,0.0,37,0.00,,---,0.00,VWS V14.01,2013-08-09 00:23:00,
2013-08-08 17:30:00,93.4,63.2,29.82,North,2,0.0,0.0,37,0.00,,---,0.00,VWS V14.01,2013-08-09 00:30:00,
2013-08-08 17:35:00,93.0,62.9,29.82,North,2,0.0,0.0,37,0.00,,---,0.00,VWS V14.01,2013-08-09 00:35:00,
2013-08-08 17:40:00,92.8,62.8,29.82,North,3,0.0,0.0,37,0.00,,---,0.00,VWS V14.01,2013-08-09 00:40:00,
2013-08-08 17:45:00,92.7,62.6,29.82,South,175,0.0,0.0,37,0.00,,---,0.00,VWS V14.01,2013-08-09 00:45:00,
2013-08-08 17:50:00,92.3,62.3,29.82,North,5,0.0,0.0,37,0.00,,---,0.00,VWS V14.01,2013-08-09 00:50:00,
2013-08-08 17:55:00,92.1,62.1,29.82,North,2,0.0,0.0,37,0.00,,---,0.00,VWS V14.01,2013-08-09 00:55:00,
2013-08-08 18:00:00,91.9,62.0,29.82,North,2,0.0,0.0,37,0.00,,---,0.00,VWS V14.01,2013-08-09 01:00:00,
2013-08-08 18:05:00,91.6,61.7,29.82,ESE,120,0.0,0.0,37,0.00,,---,0.00,VWS V14.01,2013-08-09 01:05:00,
2013-08-08 18:11:00,91.2,61.3,29.82,SE,125,0.0,0.0,37,0.00,,---,0.00,VWS V14.01,2013-08-09 01:11:00,
2013-08-08 18:16:00,90.9,61.0,29.82,SE,125,0.0,0.0,37,0.00,,---,0.00,VWS V14.01,2013-08-09 01:16:00,
2013-08-08 18:21:00,90.7,60.9,29.82,SE,130,0.0,0.0,37,0.00,,---,0.00,VWS V14.01,2013-08-09 01:21:00,
2013-08-08 18:26:00,90.5,60.7,29.82,ESE,113,0.0,0.0,37,0.00,,---,0.00,VWS V14.01,2013-08-09 01:26:00,
2013-08-08 18:31:00,90.1,60.4,29.82,ESE,117,0.0,0.0,37,0.00,,---,0.00,VWS V14.01,2013-08-09 01:31:00,
2013-08-08 18:36:00,89.8,60.1,29.82,SE,145,0.0,0.0,37,0.00,,---,0.00,VWS V14.01,2013-08-09 01:36:00,
2013-08-08 18:41:00,89.4,59.7,29.82,SSE,148,0.0,0.0,37,0.00,,---,0.00,VWS V14.01,2013-08-09 01:41:00,
2013-08-08 18:46:00,89.2,59.6,29.82,SE,127,0.0,0.0,37,0.00,,---,0.00,VWS V14.01,2013-08-09 01:46:00,
2013-08-08 18:52:00,88.7,59.1,29.82,SSE,154,0.0,0.0,37,0.00,,---,0.00,VWS V14.01,2013-08-09 01:52:00,
2013-08-08 18:57:00,88.3,58.8,29.82,SSE,157,2.2,2.2,37,0.00,,---,0.00,VWS V14.01,2013-08-09 01:57:00,
2013-08-08 19:02:00,87.4,58.0,29.82,SSE,149,6.3,6.3,37,0.00,,---,0.00,VWS V14.01,2013-08-09 02:02:00,
2013-08-08 19:07:00,87.1,57.7,29.82,SSE,164,2.7,5.8,37,0.00,,---,0.00,VWS V14.01,2013-08-09 02:07:00,
2013-08-08 19:13:00,87.1,57.7,29.82,SSE,157,0.0,5.8,37,0.00,,---,0.00,VWS V14.01,2013-08-09 02:13:00,
2013-08-08 19:18:00,86.7,57.4,29.82,SSE,157,0.0,0.0,37,0.00,,---,0.00,VWS V14.01,2013-08-09 02:18:00,
2013-08-08 19:23:00,86.2,56.9,29.82,SE,142,0.0,0.0,37,0.00,,---,0.00,VWS V14.01,2013-08-09 02:23:00,
2013-08-08 19:29:00,85.8,56.6,29.82,SE,128,0.0,0.0,37,0.00,,---,0.00,VWS V14.01,2013-08-09 02:29:00,
2013-08-08 19:34:00,85.8,56.6,29.82,SSE,167,0.0,0.0,37,0.00,,---,0.00,VWS V14.01,2013-08-09 02:34:00,
2013-08-08 19:40:00,85.3,56.1,29.82,South,170,0.0,0.0,37,0.00,,---,0.00,VWS V14.01,2013-08-09 02:40:00,
2013-08-08 19:45:00,84.9,55.8,29.85,SSE,159,0.0,0.0,37,0.00,,---,0.00,VWS V14.01,2013-08-09 02:45:00,
2013-08-08 19:50:00,84.6,55.5,29.85,SSE,150,0.0,0.0,37,0.00,,---,0.00,VWS V14.01,2013-08-09 02:50:00,
2013-08-08 19:55:00,84.2,55.1,29.85,SSE,167,2.7,5.8,37,0.00,,---,0.00,VWS V14.01,2013-08-09 02:55:00,
2013-08-08 20:00:00,84.0,55.0,29.85,SSE,155,0.0,0.0,37,0.00,,---,0.00,VWS V14.01,2013-08-09 03:00:00,
2013-08-08 20:06:00,83.7,54.7,29.85,SE,133,0.0,0.0,37,0.00,,---,0.00,VWS V14.01,2013-08-09 03:06:00,
2013-08-08 20:11:00,83.5,54.5,29.85,South,178,5.4,5.4,37,0.00,,---,0.00,VWS V14.01,2013-08-09 03:11:00,
2013-08-08 20:16:00,83.1,54.2,29.85,SE,127,0.0,0.0,37,0.00,,---,0.00,VWS V14.01,2013-08-09 03:16:00,
2013-08-08 20:21:00,82.4,53.5,29.85,South,171,0.0,0.0,37,0.00,,---,0.00,VWS V14.01,2013-08-09 03:21:00,
2013-08-08 20:27:00,82.4,53.5,29.85,SW,226,0.0,0.0,37,0.00,,---,0.00,VWS V14.01,2013-08-09 03:27:00,
2013-08-08 20:32:00,81.9,53.1,29.85,SSE,159,0.0,0.0,37,0.00,,---,0.00,VWS V14.01,2013-08-09 03:32:00,
2013-08-08 20:37:00,81.5,52.7,29.85,SSE,157,0.0,0.0,37,0.00,,---,0.00,VWS V14.01,2013-08-09 03:37:00,
2013-08-08 20:42:00,81.3,52.6,29.85,SSE,157,0.0,0.0,37,0.00,,---,0.00,VWS V14.01,2013-08-09 03:42:00,
2013-08-08 20:47:00,81.3,52.6,29.85,SE,133,0.0,0.0,37,0.00,,---,0.00,VWS V14.01,2013-08-09 03:47:00,
2013-08-08 20:52:00,81.5,52.7,29.85,SE,141,0.0,0.0,37,0.00,,---,0.00,VWS V14.01,2013-08-09 03:52:00,
2013-08-08 20:57:00,81.9,53.1,29.88,SSW,211,3.1,3.6,37,0.00,,---,0.00,VWS V14.01,2013-08-09 03:57:00,
2013-08-08 21:01:00,82.2,53.4,29.88,SW,218,0.0,0.0,37,0.00,,---,0.00,VWS V14.01,2013-08-09 04:01:00,
2013-08-08 21:02:00,82.4,53.5,29.88,SW,218,0.0,0.0,37,0.00,,---,0.00,VWS V14.01,2013-08-09 04:02:00,
2013-08-08 21:04:00,82.4,53.5,29.88,SW,218,0.0,0.0,37,0.00,,---,0.00,VWS V14.01,2013-08-09 04:04:00,
2013-08-08 21:05:00,82.4,53.5,29.88,SW,218,0.0,0.0,37,0.00,,---,0.00,VWS V14.01,2013-08-09 04:05:00,
2013-08-08 21:18:00,81.3,52.6,29.88,South,187,0.0,0.0,37,0.00,,---,0.00,VWS V14.01,2013-08-09 04:18:00,
2013-08-08 21:23:00,80.8,52.1,29.88,South,187,0.0,0.0,37,0.00,,---,0.00,VWS V14.01,2013-08-09 04:23:00,
2013-08-08 21:28:00,80.1,51.5,29.88,ESE,109,0.0,0.0,37,0.00,,---,0.00,VWS V14.01,2013-08-09 04:28:00,
2013-08-08 21:33:00,79.9,51.3,29.88,East,83,0.0,0.0,37,0.00,,---,0.00,VWS V14.01,2013-08-09 04:33:00,
2013-08-08 21:38:00,79.9,51.3,29.88,East,83,0.0,0.0,37,0.00,,---,0.00,VWS V14.01,2013-08-09 04:38:00,
2013-08-08 21:43:00,80.1,51.5,29.88,ESE,108,0.0,0.0,37,0.00,,---,0.00,VWS V14.01,2013-08-09 04:43:00,
2013-08-08 21:48:00,79.7,51.2,29.88,ESE,118,0.0,0.0,37,0.00,,---,0.00,VWS V14.01,2013-08-09 04:48:00,
2013-08-08 21:53:00,79.2,50.7,29.88,ESE,118,0.0,0.0,37,0.00,,---,0.00,VWS V14.01,2013-08-09 04:53:00,
2013-08-08 21:58:00,78.8,50.4,29.88,ESE,121,0.0,0.0,37,0.00,,---,0.00,VWS V14.01,2013-08-09 04:58:00,
2013-08-08 22:03:00,78.6,50.9,29.88,ENE,77,3.1,3.1,38,0.00,,---,0.00,VWS V14.01,2013-08-09 05:03:00,
2013-08-08 22:08:00,78.6,50.9,29.88,ESE,107,3.6,3.6,38,0.00,,---,0.00,VWS V14.01,2013-08-09 05:08:00,
2013-08-08 22:13:00,79.7,51.2,29.88,SE,137,0.0,0.0,37,0.00,,---,0.00,VWS V14.01,2013-08-09 05:13:00,
2013-08-08 22:18:00,79.7,51.2,29.88,SE,136,0.0,0.0,37,0.00,,---,0.00,VWS V14.01,2013-08-09 05:18:00,
2013-08-08 22:23:00,79.7,51.2,29.88,ESE,117,0.0,0.0,37,0.00,,---,0.00,VWS V14.01,2013-08-09 05:23:00,
2013-08-08 22:29:00,79.2,50.7,29.88,SE,140,0.0,0.0,37,0.00,,---,0.00,VWS V14.01,2013-08-09 05:29:00,
2013-08-08 22:34:00,79.2,50.7,29.88,SE,141,0.0,0.0,37,0.00,,---,0.00,VWS V14.01,2013-08-09 05:34:00,
2013-08-08 22:39:00,79.2,50.7,29.88,SE,136,0.0,0.0,37,0.00,,---,0.00,VWS V14.01,2013-08-09 05:39:00,
2013-08-08 22:44:00,78.3,50.6,29.88,SE,136,0.0,0.0,38,0.00,,---,0.00,VWS V14.01,2013-08-09 05:44:00,
2013-08-08 22:49:00,77.9,50.3,29.88,SE,136,0.0,0.0,38,0.00,,---,0.00,VWS V14.01,2013-08-09 05:49:00,
2013-08-08 22:54:00,77.4,49.8,29.88,SE,136,0.0,0.0,38,0.00,,---,0.00,VWS V14.01,2013-08-09 05:54:00,
2013-08-08 22:59:00,77.4,49.8,29.88,SE,136,0.0,0.0,38,0.00,,---,0.00,VWS V14.01,2013-08-09 05:59:00,
2013-08-08 23:04:00,77.4,49.8,29.88,SE,130,0.0,0.0,38,0.00,,---,0.00,VWS V14.01,2013-08-09 06:04:00,
2013-08-08 23:09:00,76.5,49.0,29.88,SSE,148,0.0,0.0,38,0.00,,---,0.00,VWS V14.01,2013-08-09 06:09:00,
2013-08-08 23:14:00,76.5,49.0,29.88,SSE,148,0.0,0.0,38,0.00,,---,0.00,VWS V14.01,2013-08-09 06:14:00,
2013-08-08 23:19:00,75.4,48.0,29.88,SSE,148,0.0,0.0,38,0.00,,---,0.00,VWS V14.01,2013-08-09 06:19:00,
2013-08-08 23:24:00,75.4,48.0,29.88,SSE,148,0.0,0.0,38,0.00,,---,0.00,VWS V14.01,2013-08-09 06:24:00,
2013-08-08 23:29:00,75.4,48.0,29.88,SSE,148,0.0,0.0,38,0.00,,---,0.00,VWS V14.01,2013-08-09 06:29:00,
2013-08-08 23:34:00,74.1,46.9,29.88,SSE,151,0.0,0.0,38,0.00,,---,0.00,VWS V14.01,2013-08-09 06:34:00,
2013-08-08 23:39:00,74.1,46.9,29.88,SSE,151,0.0,0.0,38,0.00,,---,0.00,VWS V14.01,2013-08-09 06:39:00,
2013-08-08 23:44:00,73.6,46.4,29.88,SSE,151,0.0,0.0,38,0.00,,---,0.00,VWS V14.01,2013-08-09 06:44:00,
2013-08-08 23:49:00,73.6,46.4,29.88,SSE,152,0.0,0.0,38,0.00,,---,0.00,VWS V14.01,2013-08-09 06:49:00,
2013-08-08 23:54:00,73.6,46.4,29.88,SSE,152,0.0,0.0,38,0.00,,---,0.00,VWS V14.01,2013-08-09 06:54:00,
2013-08-08 23:59:00,73.6,46.4,29.88,SSE,152,0.0,0.0,38,0.00,,---,0.00,VWS V14.01,2013-08-09 06:59:00,